CEB332 RPVK-RPVM

Flight info

Callsign CEB332
Flight time N/A
Altitude 15000
Route ROX3B ROX W6A PARAO PARAO1
Aircraft A20N/M-SDE2E3FGHIRWXY/LB1

Departure

Time 2026-04-25 15:20
Airport Kalibo International Airport (RPVK)

Arrival

Time N/A
Airport Mactan Cebu International Airport (RPVM)
Time Latitude Longitude Altitude Speed Heading
2026-04-25 14:37 11.68505 122.38058 42 ft 0 kts 319°
2026-04-25 15:14 11.68498 122.38065 44 ft 2 kts 319°
2026-04-25 15:14 11.68486 122.38075 44 ft 2 kts 319°
2026-04-25 15:15 11.68478 122.38081 44 ft 1 kts 351°
2026-04-25 15:15 11.68471 122.38081 44 ft 0 kts 43°
2026-04-25 15:15 11.68467 122.38075 44 ft 1 kts 50°
2026-04-25 15:15 11.68466 122.38074 44 ft 0 kts 49°
2026-04-25 15:16 11.68470 122.38079 44 ft 1 kts 49°
2026-04-25 15:17 11.68492 122.38104 43 ft 3 kts 49°
2026-04-25 15:17 11.68514 122.38129 43 ft 7 kts 47°
2026-04-25 15:17 11.68553 122.38180 43 ft 7 kts 69°
2026-04-25 15:18 11.68551 122.38233 42 ft 8 kts 81°
2026-04-25 15:18 11.68679 122.38372 42 ft 10 kts 57°
2026-04-25 15:18 11.68672 122.38387 42 ft 3 kts 199°
2026-04-25 15:19 11.68653 122.38367 42 ft 3 kts 230°
2026-04-25 15:19 11.68647 122.38360 42 ft 4 kts 230°
2026-04-25 15:19 11.68250 122.37901 46 ft 113 kts 228°
2026-04-25 15:19 11.67585 122.37128 52 ft 173 kts 226°
2026-04-25 15:20 11.66746 122.36146 491 ft 186 kts 228°
2026-04-25 15:20 11.65906 122.35138 1205 ft 188 kts 224°
2026-04-25 15:20 11.64842 122.34467 1875 ft 180 kts 181°
2026-04-25 15:20 11.63697 122.34770 2438 ft 171 kts 134°
2026-04-25 15:21 11.63040 122.35765 2902 ft 173 kts 102°
2026-04-25 15:21 11.63044 122.37001 3336 ft 184 kts 73°
2026-04-25 15:21 11.63475 122.38293 3703 ft 205 kts 72°
2026-04-25 15:21 11.63922 122.39766 4167 ft 225 kts 73°
2026-04-25 15:22 11.64385 122.41345 4663 ft 242 kts 73°
2026-04-25 15:22 11.64872 122.43012 5226 ft 257 kts 73°
2026-04-25 15:22 11.65386 122.44773 6015 ft 262 kts 73°
2026-04-25 15:22 11.65910 122.46576 6828 ft 266 kts 74°
2026-04-25 15:23 11.66116 122.48453 7584 ft 272 kts 96°
2026-04-25 15:23 11.65719 122.50329 8372 ft 276 kts 103°
2026-04-25 15:23 11.65198 122.52215 9100 ft 282 kts 104°
2026-04-25 15:23 11.64678 122.54175 9821 ft 287 kts 103°
2026-04-25 15:24 11.64186 122.56154 10476 ft 295 kts 103°
2026-04-25 15:24 11.63696 122.58218 10861 ft 311 kts 102°
2026-04-25 15:24 11.63180 122.60439 11191 ft 329 kts 102°
2026-04-25 15:24 11.62999 122.61215 11295 ft 335 kts 102°
2026-04-25 15:25 11.62059 122.65230 11772 ft 364 kts 103°
2026-04-25 15:25 11.61461 122.67793 12038 ft 380 kts 103°
2026-04-25 15:25 11.60843 122.70441 12419 ft 391 kts 103°
2026-04-25 15:25 11.60131 122.73142 12972 ft 396 kts 109°
2026-04-25 15:26 11.58929 122.75665 13532 ft 401 kts 121°
2026-04-25 15:26 11.57184 122.77930 14115 ft 405 kts 133°
2026-04-25 15:26 11.55152 122.79939 14618 ft 408 kts 136°
2026-04-25 15:26 11.53082 122.81911 14878 ft 409 kts 136°
2026-04-25 15:27 11.51017 122.83875 14918 ft 409 kts 136°
2026-04-25 15:27 11.48925 122.85875 14924 ft 409 kts 136°
2026-04-25 15:27 11.44789 122.89855 14925 ft 408 kts 135°
2026-04-25 15:28 11.42713 122.91862 14924 ft 408 kts 135°
2026-04-25 15:28 11.40663 122.93842 14922 ft 408 kts 135°
2026-04-25 15:28 11.38597 122.95839 14921 ft 408 kts 135°
2026-04-25 15:28 11.36527 122.97836 14921 ft 407 kts 135°
2026-04-25 15:29 11.34481 122.99805 14923 ft 408 kts 135°
2026-04-25 15:29 11.32416 123.01791 14922 ft 408 kts 136°
2026-04-25 15:29 11.30330 123.03797 14922 ft 407 kts 135°
2026-04-25 15:29 11.28269 123.05783 14918 ft 408 kts 135°
2026-04-25 15:30 11.26226 123.07750 14916 ft 408 kts 135°
2026-04-25 15:30 11.24169 123.09734 14916 ft 408 kts 135°
2026-04-25 15:30 11.22088 123.11738 14915 ft 407 kts 135°
2026-04-25 15:30 11.20032 123.13721 14913 ft 408 kts 135°
2026-04-25 15:31 11.17968 123.15709 14915 ft 407 kts 135°
2026-04-25 15:31 11.15929 123.17673 14915 ft 407 kts 135°
2026-04-25 15:31 11.13850 123.19677 14915 ft 406 kts 135°
2026-04-25 15:31 11.11808 123.21645 14915 ft 406 kts 135°
2026-04-25 15:32 11.09758 123.23619 14907 ft 404 kts 135°